Location: Borgo
(42.3939°N, 9.2791°E)
Time: 06:04:09
(UTC+00:00)

Meteor 1-20 Rocket - Pass Details

Date: 27 February 2020
Orbit: 820 x 891 km, 81.2° (Epoch: 28 March)

Event Time Altitude Azimuth Distance (km) Brightness Sun altitude
Rises 18:11:34 0° 189° (S) 3,341 7.4 -12.2°
Reaches altitude 10° 18:13:56 10° 189° (S) 2,416 6.7 -12.7°
Maximum altitude 18:19:25 88° 278° (W) 838 4.2 -13.7°
Drops below altitude 10° 18:25:01 10° 9° (N) 2,468 6.6 -14.7°
Sets 18:27:27 0° 10° (N) 3,418 7.3 -15.2°
